Weather History for Klawock, AK

Change the Weather History Date:

Wednesday, February 20, 2013

  Actual Average Record
Temperature  
Mean Temperature 37 °F -  
Max Temperature 39 °F 40 °F 46 °F (2001)
Min Temperature 35 °F 30 °F 24 °F (2005)
Degree Days  
Heating Degree Days 28    
Moisture  
Dew Point 34 °F    
Average Humidity 89    
Maximum Humidity 93    
Minimum Humidity 81    
Precipitation  
Precipitation 0.46 in - - ()
Sea Level Pressure  
Sea Level Pressure 29.54 in    
Wind  
Wind Speed 5 mph (South)    
Max Wind Speed 10 mph    
Max Gust Speed 23 mph    
Visibility 9 miles    
Events Rain    
Averages and records for this station are not official NWS values.
T = Trace of Precipitation, MM = Missing Value Source: NWS Daily Summary

Daily Weather History Graph

Daily Weather History Graph

Search for Another Location

Airport:

Trip Planner

Search our weather history database for the weather conditions in past years. The results will help you decide how hot, cold, wet, or windy it might be!

Date:

Astronomy

Feb. 20, 2013 Rise Set
Actual Time 7:03 AM AKST 5:09 PM AKST
Civil Twilight 6:26 AM AKST 5:46 PM AKST
Nautical Twilight 5:43 AM AKST 6:29 PM AKST
Astronomical Twilight 5:00 AM AKST 7:12 PM AKST
Moon 12:03 PM AKST (2/20) 4:02 AM AKST (2/20)
Length of Visible Light 11h 20m
Length of Day
10h 05m
Waxing Gibbous, 77% of the Moon is Illuminated
Feb 20
Waxing Gibbous
Feb 25
Full
Mar 4
Last Quarter
Mar 11
New
Mar 19
First Quarter

Hourly Weather History & Observations

Time (AKST) Temp. Windchill Dew Point Humidity Pressure Visibility Wind Dir Wind Speed Gust Speed Precip Events Conditions
12:20 AM 39.2 °F 35.0 °F 33.8 °F 81% 29.66 in 10.0 mi Variable 5.8 mph 21.9 mph 0.00 in Rain Light Rain
12:53 AM 37.0 °F - 34.0 °F 89% 29.65 in 10.0 mi Calm Calm - 0.02 in Rain Light Rain
1:07 AM 37.4 °F 32.8 °F 33.8 °F 87% 29.63 in 10.0 mi Variable 5.8 mph - 0.01 in Rain Light Rain
1:42 AM 37.4 °F 33.8 °F 33.8 °F 87% 29.61 in 10.0 mi Variable 4.6 mph - 0.01 in Rain Light Rain
1:53 AM 37.0 °F 32.4 °F 34.0 °F 89% 29.61 in 10.0 mi Variable 5.8 mph - 0.02 in Rain Light Rain
2:10 AM 37.4 °F 34.9 °F 33.8 °F 87% 29.59 in 10.0 mi SSE 3.5 mph - 0.00 in Rain Light Rain
3:28 AM 37.4 °F 34.9 °F 33.8 °F 87% 29.57 in 4.0 mi Variable 3.5 mph - 0.01 in Rain Light Rain
3:53 AM 36.0 °F 32.1 °F 34.0 °F 93% 29.57 in 10.0 mi Variable 4.6 mph - 0.02 in Rain Light Rain
4:53 AM 36.0 °F 30.3 °F 34.0 °F 93% 29.59 in 10.0 mi SSW 6.9 mph - 0.03 in Rain Light Rain
5:53 AM 37.0 °F 32.4 °F 34.0 °F 89% 29.60 in 10.0 mi Variable 5.8 mph - 0.01 in Rain Light Rain
6:53 AM 37.0 °F 31.6 °F 34.0 °F 89% 29.62 in 10.0 mi South 6.9 mph - 0.04 in   Overcast
7:53 AM 37.9 °F 32.7 °F 34.0 °F 86% 29.62 in 10.0 mi Variable 6.9 mph - 0.00 in   Mostly Cloudy
8:53 AM 37.9 °F 33.5 °F 34.0 °F 86% 29.63 in 10.0 mi Variable 5.8 mph - 0.00 in   Overcast
9:53 AM 39.9 °F 36.7 °F 35.1 °F 83% 29.64 in 10.0 mi South 4.6 mph - 0.00 in   Overcast
10:08 AM 39.2 °F 35.9 °F 33.8 °F 81% 29.63 in 9.0 mi South 4.6 mph - 0.00 in Rain Light Rain
10:51 AM 39.2 °F 34.2 °F 35.6 °F 87% 29.64 in 10.0 mi SSW 6.9 mph - 0.02 in   Overcast
10:53 AM 39.0 °F 34.0 °F 36.0 °F 89% 29.64 in 10.0 mi SSW 6.9 mph - 0.02 in   Overcast
11:03 AM 37.4 °F 32.1 °F 33.8 °F 87% 29.64 in 6.0 mi SSW 6.9 mph 17.3 mph 0.01 in Rain Light Rain
11:12 AM 37.4 °F 32.1 °F 35.6 °F 93% 29.64 in 10.0 mi SSW 6.9 mph - 0.01 in   Mostly Cloudy
11:36 AM 39.2 °F 34.2 °F 35.6 °F 87% 29.63 in 10.0 mi South 6.9 mph - 0.01 in   Overcast
12:17 PM 39.2 °F 35.0 °F 35.6 °F 87% 29.62 in 1.8 mi SSW 5.8 mph 18.4 mph 0.04 in Rain Rain
12:26 PM 37.4 °F 30.3 °F 35.6 °F 93% 29.63 in 3.0 mi SSW 10.4 mph 23.0 mph 0.05 in Rain Light Rain
12:53 PM 39.0 °F 36.8 °F 36.0 °F 89% 29.62 in 10.0 mi Variable 3.5 mph - 0.05 in   Overcast
1:53 PM 37.9 °F 34.4 °F 35.1 °F 89% 29.60 in 8.0 mi SSW 4.6 mph - 0.02 in Rain Light Rain
2:07 PM 39.2 °F 35.9 °F 35.6 °F 87% 29.59 in 10.0 mi South 4.6 mph - 0.00 in   Overcast
2:53 PM 37.9 °F 34.4 °F 34.0 °F 86% 29.57 in 7.0 mi Variable 4.6 mph - 0.01 in Rain Light Rain
3:46 PM 37.4 °F 33.8 °F 33.8 °F 87% 29.53 in 10.0 mi Variable 4.6 mph - 0.02 in Rain Light Rain
4:49 PM 37.4 °F 32.8 °F 33.8 °F 87% 29.50 in 6.0 mi South 5.8 mph - 0.01 in Rain Light Rain
4:53 PM 36.0 °F 32.1 °F 34.0 °F 93% 29.50 in 7.0 mi Variable 4.6 mph - 0.01 in Rain Light Rain
5:53 PM 36.0 °F 31.1 °F 33.1 °F 89% 29.45 in 8.0 mi SSE 5.8 mph - 0.04 in Rain Light Rain
6:53 PM 36.0 °F 32.1 °F 33.1 °F 89% 29.41 in 7.0 mi Variable 4.6 mph - 0.03 in Rain Light Rain
7:53 PM 36.0 °F 33.3 °F 33.1 °F 89% 29.38 in 10.0 mi Variable 3.5 mph - 0.05 in Rain Light Rain
8:53 PM 36.0 °F 33.3 °F 33.1 °F 89% 29.35 in 10.0 mi Variable 3.5 mph - 0.02 in Rain Light Rain
9:26 PM 35.6 °F 30.7 °F 33.8 °F 93% 29.34 in 10.0 mi Variable 5.8 mph - 0.01 in Rain Light Rain
9:53 PM 36.0 °F 32.1 °F 33.1 °F 89% 29.33 in 9.0 mi Variable 4.6 mph - 0.03 in Rain Light Rain
10:49 PM 35.6 °F 31.7 °F 33.8 °F 93% 29.32 in 10.0 mi Variable 4.6 mph - 0.02 in Rain Light Rain
10:53 PM 36.0 °F 33.3 °F 34.0 °F 93% 29.33 in 10.0 mi Variable 3.5 mph - 0.02 in Rain Light Rain
11:40 PM 35.6 °F - 33.8 °F 93% 29.32 in 10.0 mi Calm Calm - 0.02 in Rain Light Rain
11:51 PM 35.6 °F - 33.8 °F 93% 29.33 in 10.0 mi Calm Calm - 0.02 in Rain Light Rain
11:53 PM 36.0 °F - 34.0 °F 93% 29.33 in 10.0 mi Calm Calm - 0.02 in Rain Light Rain